Weather History for Norfolk, VA

Change the Weather History Date:

Tuesday, December 31, 2013

  Actual Average Record
Temperature  
Mean Temperature 42 °F 41 °F  
Max Temperature 50 °F 49 °F 73 °F (1932)
Min Temperature 33 °F 33 °F 9 °F (1917)
Degree Days  
Heating Degree Days 23 24  
Month to date heating degree days 571 650  
Since 1 July heating degree days 1102 1179  
Cooling Degree Days 0 0  
Month to date cooling degree days 5 1  
Year to date cooling degree days 1759 1629  
Moisture  
Dew Point 26 °F    
Average Humidity 50    
Maximum Humidity 65    
Minimum Humidity 34    
Precipitation  
Precipitation 0.00 in 0.09 in 1.43 in (1952)
Month to date precipitation 4.75 3.26  
Year to date precipitation 45.65 46.53  
Snow  
Snow 0.00 in 0.10 in 1.00 in (1905)
Month to date snowfall 0.0 1.2  
Since 1 July snowfall 0.0 1.2  
Snow Depth 0.00 in    
Sea Level Pressure  
Sea Level Pressure 30.21 in    
Wind  
Wind Speed 7 mph (NW)    
Max Wind Speed 15 mph    
Max Gust Speed 22 mph    
Visibility 10 miles    
Events      
T = Trace of Precipitation, MM = Missing Value Source: NWS Daily Summary

Daily Weather History Graph

Daily Weather History Graph

Search for Another Location

Airport:

Trip Planner

Search our weather history database for the weather conditions in past years. The results will help you decide how hot, cold, wet, or windy it might be!

Date:

Astronomy

Dec. 31, 2013 Rise Set
Actual Time 7:17 AM EST 4:58 PM EST
Civil Twilight 6:48 AM EST 5:27 PM EST
Nautical Twilight 6:16 AM EST 5:59 PM EST
Astronomical Twilight 5:44 AM EST 6:31 PM EST
Moon 6:09 AM EST (12/31) 4:30 PM EST (12/31)
Length of Visible Light 10h 38m
Length of Day
9h 40m
Waning Crescent, 1% of the Moon is Illuminated
Dec 31
Waning Crescent
Jan 1
New
Jan 7
First Quarter
Jan 15
Full
Jan 24
Last Quarter

Hourly Weather History & Observations

Time (EST) Temp. Windchill Dew Point Humidity Pressure Visibility Wind Dir Wind Speed Gust Speed Precip Events Conditions
12:51 AM 42.1 °F 36.1 °F 30.0 °F 62% 30.14 in 10.0 mi NNE 10.4 mph - N/A   Overcast
1:47 AM 41.0 °F 34.7 °F 30.2 °F 65% 30.14 in 10.0 mi NE 10.4 mph - N/A   Overcast
1:51 AM 41.0 °F 33.9 °F 30.0 °F 65% 30.13 in 10.0 mi NNE 12.7 mph - N/A   Overcast
2:49 AM 39.2 °F 33.0 °F 28.4 °F 65% 30.14 in 10.0 mi NE 9.2 mph - N/A   Overcast
2:51 AM 39.9 °F 33.9 °F 28.9 °F 65% 30.14 in 10.0 mi NE 9.2 mph - N/A   Overcast
3:51 AM 39.9 °F 33.4 °F 28.0 °F 63% 30.13 in 10.0 mi NE 10.4 mph - N/A   Overcast
4:51 AM 39.0 °F 32.3 °F 28.0 °F 65% 30.14 in 10.0 mi NNE 10.4 mph - N/A   Overcast
5:06 AM 39.2 °F 31.6 °F 28.4 °F 65% 30.14 in 10.0 mi NNE 12.7 mph - N/A   Overcast
5:51 AM 37.9 °F 31.5 °F 27.0 °F 65% 30.17 in 10.0 mi North 9.2 mph - N/A   Overcast
6:51 AM 37.9 °F 31.5 °F 26.1 °F 62% 30.19 in 10.0 mi NNE 9.2 mph - N/A   Overcast
7:51 AM 37.9 °F 34.4 °F 26.1 °F 62% 30.19 in 10.0 mi NE 4.6 mph - N/A   Overcast
8:51 AM 39.0 °F - 26.1 °F 60% 30.22 in 10.0 mi Calm Calm - N/A   Overcast
9:51 AM 39.9 °F - 27.0 °F 60% 30.22 in 10.0 mi Calm Calm - N/A   Clear
10:51 AM 42.1 °F 38.4 °F 27.0 °F 55% 30.23 in 10.0 mi SW 5.8 mph - N/A   Unknown
11:51 AM 46.0 °F 40.6 °F 28.9 °F 51% 30.21 in 10.0 mi WSW 11.5 mph - N/A   Clear
12:51 PM 48.0 °F - 28.9 °F 48% 30.17 in 10.0 mi West 8.1 mph 16.1 mph N/A   Clear
1:51 PM 50.0 °F - 28.9 °F 44% 30.17 in 10.0 mi Variable 6.9 mph 20.7 mph N/A   Clear
2:51 PM 50.0 °F - 26.1 °F 39% 30.18 in 10.0 mi West 9.2 mph 18.4 mph N/A   Clear
3:51 PM 48.9 °F - 21.0 °F 33% 30.19 in 10.0 mi WNW 8.1 mph - N/A   Clear
4:51 PM 46.9 °F - 21.9 °F 37% 30.22 in 10.0 mi WSW 5.8 mph - N/A   Clear
5:51 PM 46.0 °F 43.1 °F 21.0 °F 37% 30.24 in 10.0 mi West 5.8 mph - N/A   Clear
6:51 PM 44.1 °F 42.5 °F 21.9 °F 42% 30.26 in 10.0 mi WSW 3.5 mph - N/A   Clear
7:51 PM 41.0 °F 38.0 °F 21.9 °F 47% 30.30 in 10.0 mi SW 4.6 mph - N/A   Clear
8:51 PM 36.0 °F 31.1 °F 23.0 °F 59% 30.30 in 10.0 mi SW 5.8 mph - N/A   Clear
9:51 PM 42.1 °F 39.2 °F 24.1 °F 49% 30.32 in 10.0 mi WSW 4.6 mph - N/A   Clear
10:51 PM 42.1 °F 40.2 °F 24.1 °F 49% 30.34 in 10.0 mi West 3.5 mph - N/A   Clear
11:51 PM 33.1 °F - 23.0 °F 66% 30.34 in 10.0 mi Calm Calm - N/A   Clear